Index of /20260427/WXO-DD/model_rdps/10km/12/010
Name Last modified Size Description
Parent Directory -
20260427T12Z_MSC_RDPS_AbsoluteVorticity_IsbL-0250_RLatLon0.09_PT010H.grib2 2026-04-27 14:43 615K
20260427T12Z_MSC_RDPS_AbsoluteVorticity_IsbL-0500_RLatLon0.09_PT010H.grib2 2026-04-27 14:43 561K
20260427T12Z_MSC_RDPS_AbsoluteVorticity_IsbL-0700_RLatLon0.09_PT010H.grib2 2026-04-27 14:43 623K
20260427T12Z_MSC_RDPS_AbsoluteVorticity_IsbL-0850_RLatLon0.09_PT010H.grib2 2026-04-27 14:43 779K
20260427T12Z_MSC_RDPS_AirTemp_AGL-120m_RLatLon0.09_PT010H.grib2 2026-04-27 14:43 393K
20260427T12Z_MSC_RDPS_AirTemp_AGL-2m_RLatLon0.09_PT010H.grib2 2026-04-27 14:43 630K
20260427T12Z_MSC_RDPS_AirTemp_AGL-40m_RLatLon0.09_PT010H.grib2 2026-04-27 14:43 403K
20260427T12Z_MSC_RDPS_AirTemp_AGL-80m_RLatLon0.09_PT010H.grib2 2026-04-27 14:43 397K
20260427T12Z_MSC_RDPS_AirTemp_IsbL-0001_RLatLon0.09_PT010H.grib2 2026-04-27 14:43 271K
20260427T12Z_MSC_RDPS_AirTemp_IsbL-0005_RLatLon0.09_PT010H.grib2 2026-04-27 14:43 329K
20260427T12Z_MSC_RDPS_AirTemp_IsbL-0010_RLatLon0.09_PT010H.grib2 2026-04-27 14:43 301K
20260427T12Z_MSC_RDPS_AirTemp_IsbL-0020_RLatLon0.09_PT010H.grib2 2026-04-27 14:43 317K
20260427T12Z_MSC_RDPS_AirTemp_IsbL-0030_RLatLon0.09_PT010H.grib2 2026-04-27 14:43 332K
20260427T12Z_MSC_RDPS_AirTemp_IsbL-0050_RLatLon0.09_PT010H.grib2 2026-04-27 14:43 313K
20260427T12Z_MSC_RDPS_AirTemp_IsbL-0100_RLatLon0.09_PT010H.grib2 2026-04-27 14:43 423K
20260427T12Z_MSC_RDPS_AirTemp_IsbL-0150_RLatLon0.09_PT010H.grib2 2026-04-27 14:43 425K
20260427T12Z_MSC_RDPS_AirTemp_IsbL-0175_RLatLon0.09_PT010H.grib2 2026-04-27 14:43 418K
20260427T12Z_MSC_RDPS_AirTemp_IsbL-0200_RLatLon0.09_PT010H.grib2 2026-04-27 14:43 425K
20260427T12Z_MSC_RDPS_AirTemp_IsbL-0225_RLatLon0.09_PT010H.grib2 2026-04-27 14:43 424K
20260427T12Z_MSC_RDPS_AirTemp_IsbL-0250_RLatLon0.09_PT010H.grib2 2026-04-27 14:43 430K
20260427T12Z_MSC_RDPS_AirTemp_IsbL-0275_RLatLon0.09_PT010H.grib2 2026-04-27 14:43 411K
20260427T12Z_MSC_RDPS_AirTemp_IsbL-0300_RLatLon0.09_PT010H.grib2 2026-04-27 14:43 416K
20260427T12Z_MSC_RDPS_AirTemp_IsbL-0350_RLatLon0.09_PT010H.grib2 2026-04-27 14:43 426K
20260427T12Z_MSC_RDPS_AirTemp_IsbL-0400_RLatLon0.09_PT010H.grib2 2026-04-27 14:43 428K
20260427T12Z_MSC_RDPS_AirTemp_IsbL-0450_RLatLon0.09_PT010H.grib2 2026-04-27 14:43 434K
20260427T12Z_MSC_RDPS_AirTemp_IsbL-0500_RLatLon0.09_PT010H.grib2 2026-04-27 14:43 411K
20260427T12Z_MSC_RDPS_AirTemp_IsbL-0550_RLatLon0.09_PT010H.grib2 2026-04-27 14:43 430K
20260427T12Z_MSC_RDPS_AirTemp_IsbL-0600_RLatLon0.09_PT010H.grib2 2026-04-27 14:43 448K
20260427T12Z_MSC_RDPS_AirTemp_IsbL-0650_RLatLon0.09_PT010H.grib2 2026-04-27 14:43 462K
20260427T12Z_MSC_RDPS_AirTemp_IsbL-0700_RLatLon0.09_PT010H.grib2 2026-04-27 14:43 489K
20260427T12Z_MSC_RDPS_AirTemp_IsbL-0750_RLatLon0.09_PT010H.grib2 2026-04-27 14:43 416K
20260427T12Z_MSC_RDPS_AirTemp_IsbL-0800_RLatLon0.09_PT010H.grib2 2026-04-27 14:43 460K
20260427T12Z_MSC_RDPS_AirTemp_IsbL-0850_RLatLon0.09_PT010H.grib2 2026-04-27 14:43 502K
20260427T12Z_MSC_RDPS_AirTemp_IsbL-0875_RLatLon0.09_PT010H.grib2 2026-04-27 14:43 516K
20260427T12Z_MSC_RDPS_AirTemp_IsbL-0900_RLatLon0.09_PT010H.grib2 2026-04-27 14:43 533K
20260427T12Z_MSC_RDPS_AirTemp_IsbL-0925_RLatLon0.09_PT010H.grib2 2026-04-27 14:43 533K
20260427T12Z_MSC_RDPS_AirTemp_IsbL-0950_RLatLon0.09_PT010H.grib2 2026-04-27 14:43 535K
20260427T12Z_MSC_RDPS_AirTemp_IsbL-0970_RLatLon0.09_PT010H.grib2 2026-04-27 14:43 532K
20260427T12Z_MSC_RDPS_AirTemp_IsbL-0985_RLatLon0.09_PT010H.grib2 2026-04-27 14:43 527K
20260427T12Z_MSC_RDPS_AirTemp_IsbL-1000_RLatLon0.09_PT010H.grib2 2026-04-27 14:43 513K
20260427T12Z_MSC_RDPS_AirTemp_IsbL-1015_RLatLon0.09_PT010H.grib2 2026-04-27 14:43 508K
20260427T12Z_MSC_RDPS_Albedo_Sfc_RLatLon0.09_PT010H.grib2 2026-04-27 14:43 160K
20260427T12Z_MSC_RDPS_CAPE_Sfc_RLatLon0.09_PT010H.grib2 2026-04-27 14:43 1.7M
20260427T12Z_MSC_RDPS_CIN_Sfc_RLatLon0.09_PT010H.grib2 2026-04-27 14:43 1.2M
20260427T12Z_MSC_RDPS_CloudWater_EAtm_RLatLon0.09_PT010H.grib2 2026-04-27 14:43 220K
20260427T12Z_MSC_RDPS_ConvectivePrecip-Accum_Sfc_RLatLon0.09_PT010H.grib2 2026-04-27 14:43 643K
20260427T12Z_MSC_RDPS_DewPointDepression_AGL-2m_RLatLon0.09_PT010H.grib2 2026-04-27 14:43 420K
20260427T12Z_MSC_RDPS_DewPointDepression_IsbL-0001_RLatLon0.09_PT010H.grib2 2026-04-27 14:43 193
20260427T12Z_MSC_RDPS_DewPointDepression_IsbL-0005_RLatLon0.09_PT010H.grib2 2026-04-27 14:43 193
20260427T12Z_MSC_RDPS_DewPointDepression_IsbL-0010_RLatLon0.09_PT010H.grib2 2026-04-27 14:43 193
20260427T12Z_MSC_RDPS_DewPointDepression_IsbL-0020_RLatLon0.09_PT010H.grib2 2026-04-27 14:43 193
20260427T12Z_MSC_RDPS_DewPointDepression_IsbL-0030_RLatLon0.09_PT010H.grib2 2026-04-27 14:43 193
20260427T12Z_MSC_RDPS_DewPointDepression_IsbL-0050_RLatLon0.09_PT010H.grib2 2026-04-27 14:43 85K
20260427T12Z_MSC_RDPS_DewPointDepression_IsbL-0100_RLatLon0.09_PT010H.grib2 2026-04-27 14:43 127K
20260427T12Z_MSC_RDPS_DewPointDepression_IsbL-0150_RLatLon0.09_PT010H.grib2 2026-04-27 14:43 154K
20260427T12Z_MSC_RDPS_DewPointDepression_IsbL-0175_RLatLon0.09_PT010H.grib2 2026-04-27 14:43 189K
20260427T12Z_MSC_RDPS_DewPointDepression_IsbL-0200_RLatLon0.09_PT010H.grib2 2026-04-27 14:43 231K
20260427T12Z_MSC_RDPS_DewPointDepression_IsbL-0225_RLatLon0.09_PT010H.grib2 2026-04-27 14:43 270K
20260427T12Z_MSC_RDPS_DewPointDepression_IsbL-0250_RLatLon0.09_PT010H.grib2 2026-04-27 14:43 305K
20260427T12Z_MSC_RDPS_DewPointDepression_IsbL-0275_RLatLon0.09_PT010H.grib2 2026-04-27 14:43 316K
20260427T12Z_MSC_RDPS_DewPointDepression_IsbL-0300_RLatLon0.09_PT010H.grib2 2026-04-27 14:43 332K
20260427T12Z_MSC_RDPS_DewPointDepression_IsbL-0350_RLatLon0.09_PT010H.grib2 2026-04-27 14:43 337K
20260427T12Z_MSC_RDPS_DewPointDepression_IsbL-0400_RLatLon0.09_PT010H.grib2 2026-04-27 14:43 351K
20260427T12Z_MSC_RDPS_DewPointDepression_IsbL-0450_RLatLon0.09_PT010H.grib2 2026-04-27 14:43 360K
20260427T12Z_MSC_RDPS_DewPointDepression_IsbL-0500_RLatLon0.09_PT010H.grib2 2026-04-27 14:43 363K
20260427T12Z_MSC_RDPS_DewPointDepression_IsbL-0550_RLatLon0.09_PT010H.grib2 2026-04-27 14:43 373K
20260427T12Z_MSC_RDPS_DewPointDepression_IsbL-0600_RLatLon0.09_PT010H.grib2 2026-04-27 14:43 387K
20260427T12Z_MSC_RDPS_DewPointDepression_IsbL-0650_RLatLon0.09_PT010H.grib2 2026-04-27 14:43 395K
20260427T12Z_MSC_RDPS_DewPointDepression_IsbL-0700_RLatLon0.09_PT010H.grib2 2026-04-27 14:43 408K
20260427T12Z_MSC_RDPS_DewPointDepression_IsbL-0750_RLatLon0.09_PT010H.grib2 2026-04-27 14:43 431K
20260427T12Z_MSC_RDPS_DewPointDepression_IsbL-0800_RLatLon0.09_PT010H.grib2 2026-04-27 14:43 462K
20260427T12Z_MSC_RDPS_DewPointDepression_IsbL-0850_RLatLon0.09_PT010H.grib2 2026-04-27 14:43 482K
20260427T12Z_MSC_RDPS_DewPointDepression_IsbL-0875_RLatLon0.09_PT010H.grib2 2026-04-27 14:43 479K
20260427T12Z_MSC_RDPS_DewPointDepression_IsbL-0900_RLatLon0.09_PT010H.grib2 2026-04-27 14:43 471K
20260427T12Z_MSC_RDPS_DewPointDepression_IsbL-0925_RLatLon0.09_PT010H.grib2 2026-04-27 14:43 460K
20260427T12Z_MSC_RDPS_DewPointDepression_IsbL-0950_RLatLon0.09_PT010H.grib2 2026-04-27 14:43 449K
20260427T12Z_MSC_RDPS_DewPointDepression_IsbL-0970_RLatLon0.09_PT010H.grib2 2026-04-27 14:43 441K
20260427T12Z_MSC_RDPS_DewPointDepression_IsbL-0985_RLatLon0.09_PT010H.grib2 2026-04-27 14:43 435K
20260427T12Z_MSC_RDPS_DewPointDepression_IsbL-1000_RLatLon0.09_PT010H.grib2 2026-04-27 14:43 431K
20260427T12Z_MSC_RDPS_DewPointDepression_IsbL-1015_RLatLon0.09_PT010H.grib2 2026-04-27 14:43 423K
20260427T12Z_MSC_RDPS_DewPoint_AGL-2m_RLatLon0.09_PT010H.grib2 2026-04-27 14:43 314K
20260427T12Z_MSC_RDPS_DownwardLongwaveRadiationFlux-Accum_Sfc_RLatLon0.09_PT010H.grib2 2026-04-27 14:43 456K
20260427T12Z_MSC_RDPS_DownwardShortwaveRadiationFlux-Accum_NTAtm_RLatLon0.09_PT010H.grib2 2026-04-27 14:43 129K
20260427T12Z_MSC_RDPS_DownwardShortwaveRadiationFlux-Accum_Sfc_RLatLon0.09_PT010H.grib2 2026-04-27 14:43 563K
20260427T12Z_MSC_RDPS_FreezingRain-Accum1h_Sfc_RLatLon0.09_PT010H.grib2 2026-04-27 14:43 8.2K
20260427T12Z_MSC_RDPS_FreezingRain-Accum_Sfc_RLatLon0.09_PT010H.grib2 2026-04-27 14:43 43K
20260427T12Z_MSC_RDPS_GeopotentialHeight_IsbL-0001_RLatLon0.09_PT010H.grib2 2026-04-27 14:43 276K
20260427T12Z_MSC_RDPS_GeopotentialHeight_IsbL-0005_RLatLon0.09_PT010H.grib2 2026-04-27 14:43 342K
20260427T12Z_MSC_RDPS_GeopotentialHeight_IsbL-0010_RLatLon0.09_PT010H.grib2 2026-04-27 14:43 310K
20260427T12Z_MSC_RDPS_GeopotentialHeight_IsbL-0020_RLatLon0.09_PT010H.grib2 2026-04-27 14:43 309K
20260427T12Z_MSC_RDPS_GeopotentialHeight_IsbL-0030_RLatLon0.09_PT010H.grib2 2026-04-27 14:43 310K
20260427T12Z_MSC_RDPS_GeopotentialHeight_IsbL-0050_RLatLon0.09_PT010H.grib2 2026-04-27 14:43 311K
20260427T12Z_MSC_RDPS_GeopotentialHeight_IsbL-0100_RLatLon0.09_PT010H.grib2 2026-04-27 14:43 291K
20260427T12Z_MSC_RDPS_GeopotentialHeight_IsbL-0150_RLatLon0.09_PT010H.grib2 2026-04-27 14:43 233K
20260427T12Z_MSC_RDPS_GeopotentialHeight_IsbL-0175_RLatLon0.09_PT010H.grib2 2026-04-27 14:43 236K
20260427T12Z_MSC_RDPS_GeopotentialHeight_IsbL-0200_RLatLon0.09_PT010H.grib2 2026-04-27 14:43 269K
20260427T12Z_MSC_RDPS_GeopotentialHeight_IsbL-0225_RLatLon0.09_PT010H.grib2 2026-04-27 14:43 271K
20260427T12Z_MSC_RDPS_GeopotentialHeight_IsbL-0250_RLatLon0.09_PT010H.grib2 2026-04-27 14:43 272K
20260427T12Z_MSC_RDPS_GeopotentialHeight_IsbL-0275_RLatLon0.09_PT010H.grib2 2026-04-27 14:43 272K
20260427T12Z_MSC_RDPS_GeopotentialHeight_IsbL-0300_RLatLon0.09_PT010H.grib2 2026-04-27 14:43 240K
20260427T12Z_MSC_RDPS_GeopotentialHeight_IsbL-0350_RLatLon0.09_PT010H.grib2 2026-04-27 14:43 235K
20260427T12Z_MSC_RDPS_GeopotentialHeight_IsbL-0400_RLatLon0.09_PT010H.grib2 2026-04-27 14:43 230K
20260427T12Z_MSC_RDPS_GeopotentialHeight_IsbL-0450_RLatLon0.09_PT010H.grib2 2026-04-27 14:43 299K
20260427T12Z_MSC_RDPS_GeopotentialHeight_IsbL-0500_RLatLon0.09_PT010H.grib2 2026-04-27 14:43 294K
20260427T12Z_MSC_RDPS_GeopotentialHeight_IsbL-0550_RLatLon0.09_PT010H.grib2 2026-04-27 14:43 290K
20260427T12Z_MSC_RDPS_GeopotentialHeight_IsbL-0600_RLatLon0.09_PT010H.grib2 2026-04-27 14:43 287K
20260427T12Z_MSC_RDPS_GeopotentialHeight_IsbL-0650_RLatLon0.09_PT010H.grib2 2026-04-27 14:43 285K
20260427T12Z_MSC_RDPS_GeopotentialHeight_IsbL-0700_RLatLon0.09_PT010H.grib2 2026-04-27 14:43 284K
20260427T12Z_MSC_RDPS_GeopotentialHeight_IsbL-0750_RLatLon0.09_PT010H.grib2 2026-04-27 14:43 258K
20260427T12Z_MSC_RDPS_GeopotentialHeight_IsbL-0800_RLatLon0.09_PT010H.grib2 2026-04-27 14:43 263K
20260427T12Z_MSC_RDPS_GeopotentialHeight_IsbL-0850_RLatLon0.09_PT010H.grib2 2026-04-27 14:43 269K
20260427T12Z_MSC_RDPS_GeopotentialHeight_IsbL-0875_RLatLon0.09_PT010H.grib2 2026-04-27 14:43 356K
20260427T12Z_MSC_RDPS_GeopotentialHeight_IsbL-0900_RLatLon0.09_PT010H.grib2 2026-04-27 14:43 362K
20260427T12Z_MSC_RDPS_GeopotentialHeight_IsbL-0925_RLatLon0.09_PT010H.grib2 2026-04-27 14:43 366K
20260427T12Z_MSC_RDPS_GeopotentialHeight_IsbL-0950_RLatLon0.09_PT010H.grib2 2026-04-27 14:43 369K
20260427T12Z_MSC_RDPS_GeopotentialHeight_IsbL-0970_RLatLon0.09_PT010H.grib2 2026-04-27 14:43 375K
20260427T12Z_MSC_RDPS_GeopotentialHeight_IsbL-0985_RLatLon0.09_PT010H.grib2 2026-04-27 14:43 384K
20260427T12Z_MSC_RDPS_GeopotentialHeight_IsbL-1000_RLatLon0.09_PT010H.grib2 2026-04-27 14:43 396K
20260427T12Z_MSC_RDPS_GeopotentialHeight_IsbL-1015_RLatLon0.09_PT010H.grib2 2026-04-27 14:43 411K
20260427T12Z_MSC_RDPS_Humidex_Sfc_RLatLon0.09_PT010H.grib2 2026-04-27 14:43 2.4M
20260427T12Z_MSC_RDPS_IcePellets-Accum1h_Sfc_RLatLon0.09_PT010H.grib2 2026-04-27 14:43 4.0K
20260427T12Z_MSC_RDPS_IcePellets-Accum_Sfc_RLatLon0.09_PT010H.grib2 2026-04-27 14:43 7.0K
20260427T12Z_MSC_RDPS_KIndex_Sfc_RLatLon0.09_PT010H.grib2 2026-04-27 14:43 2.4M
20260427T12Z_MSC_RDPS_LatentHeatNetFlux_Sfc_RLatLon0.09_PT010H.grib2 2026-04-27 14:43 298K
20260427T12Z_MSC_RDPS_LiftedIndex-MU-VT_IsbL-0500_RLatLon0.09_PT010H.grib2 2026-04-27 14:43 2.4M
20260427T12Z_MSC_RDPS_NetLongwaveRadiationFlux-Accum_Sfc_RLatLon0.09_PT010H.grib2 2026-04-27 14:43 606K
20260427T12Z_MSC_RDPS_NetShortwaveRadiationFlux-Accum_Sfc_RLatLon0.09_PT010H.grib2 2026-04-27 14:43 563K
20260427T12Z_MSC_RDPS_PlanetaryBoundaryLayerHeight_Sfc_RLatLon0.09_PT010H.grib2 2026-04-27 14:43 1.0M
20260427T12Z_MSC_RDPS_Precip-Accum1h_Sfc_RLatLon0.09_PT010H.grib2 2026-04-27 14:43 1.3M
20260427T12Z_MSC_RDPS_Precip-Accum_Sfc_RLatLon0.09_PT010H.grib2 2026-04-27 14:43 1.7M
20260427T12Z_MSC_RDPS_PrecipRate_Sfc_RLatLon0.09_PT010H.grib2 2026-04-27 14:43 191K
20260427T12Z_MSC_RDPS_PrecipType-Instant_Sfc_RLatLon0.09_PT010H.grib2 2026-04-27 14:43 575K
20260427T12Z_MSC_RDPS_Pressure-Trend3h_Sfc_RLatLon0.09_PT010H.grib2 2026-04-27 14:43 1.2M
20260427T12Z_MSC_RDPS_Pressure_MSL_RLatLon0.09_PT010H.grib2 2026-04-27 14:43 297K
20260427T12Z_MSC_RDPS_Pressure_PVU-1.5_RLatLon0.09_PT010H.grib2 2026-04-27 14:43 2.3M
20260427T12Z_MSC_RDPS_Pressure_PVU-1_RLatLon0.09_PT010H.grib2 2026-04-27 14:43 2.4M
20260427T12Z_MSC_RDPS_Pressure_PVU-2_RLatLon0.09_PT010H.grib2 2026-04-27 14:43 2.4M
20260427T12Z_MSC_RDPS_Pressure_Sfc_RLatLon0.09_PT010H.grib2 2026-04-27 14:43 499K
20260427T12Z_MSC_RDPS_RadiativeTemp_Sfc_RLatLon0.09_PT010H.grib2 2026-04-27 14:43 325K
20260427T12Z_MSC_RDPS_Rain-Accum1h_Sfc_RLatLon0.09_PT010H.grib2 2026-04-27 14:43 647K
20260427T12Z_MSC_RDPS_Rain-Accum_Sfc_RLatLon0.09_PT010H.grib2 2026-04-27 14:43 1.2M
20260427T12Z_MSC_RDPS_RelativeHumidity_AGL-2m_RLatLon0.09_PT010H.grib2 2026-04-27 14:43 1.0M
20260427T12Z_MSC_RDPS_RelativeHumidity_IsbL-0010_RLatLon0.09_PT010H.grib2 2026-04-27 14:43 628K
20260427T12Z_MSC_RDPS_RelativeHumidity_IsbL-0020_RLatLon0.09_PT010H.grib2 2026-04-27 14:43 651K
20260427T12Z_MSC_RDPS_RelativeHumidity_IsbL-0030_RLatLon0.09_PT010H.grib2 2026-04-27 14:43 536K
20260427T12Z_MSC_RDPS_RelativeHumidity_IsbL-0050_RLatLon0.09_PT010H.grib2 2026-04-27 14:43 374K
20260427T12Z_MSC_RDPS_RelativeHumidity_IsbL-0100_RLatLon0.09_PT010H.grib2 2026-04-27 14:43 276K
20260427T12Z_MSC_RDPS_RelativeHumidity_IsbL-0150_RLatLon0.09_PT010H.grib2 2026-04-27 14:43 410K
20260427T12Z_MSC_RDPS_RelativeHumidity_IsbL-0175_RLatLon0.09_PT010H.grib2 2026-04-27 14:43 488K
20260427T12Z_MSC_RDPS_RelativeHumidity_IsbL-0200_RLatLon0.09_PT010H.grib2 2026-04-27 14:43 565K
20260427T12Z_MSC_RDPS_RelativeHumidity_IsbL-0225_RLatLon0.09_PT010H.grib2 2026-04-27 14:43 627K
20260427T12Z_MSC_RDPS_RelativeHumidity_IsbL-0250_RLatLon0.09_PT010H.grib2 2026-04-27 14:43 690K
20260427T12Z_MSC_RDPS_RelativeHumidity_IsbL-0275_RLatLon0.09_PT010H.grib2 2026-04-27 14:43 722K
20260427T12Z_MSC_RDPS_RelativeHumidity_IsbL-0300_RLatLon0.09_PT010H.grib2 2026-04-27 14:43 766K
20260427T12Z_MSC_RDPS_RelativeHumidity_IsbL-0350_RLatLon0.09_PT010H.grib2 2026-04-27 14:43 784K
20260427T12Z_MSC_RDPS_RelativeHumidity_IsbL-0400_RLatLon0.09_PT010H.grib2 2026-04-27 14:43 799K
20260427T12Z_MSC_RDPS_RelativeHumidity_IsbL-0450_RLatLon0.09_PT010H.grib2 2026-04-27 14:43 808K
20260427T12Z_MSC_RDPS_RelativeHumidity_IsbL-0500_RLatLon0.09_PT010H.grib2 2026-04-27 14:43 825K
20260427T12Z_MSC_RDPS_RelativeHumidity_IsbL-0550_RLatLon0.09_PT010H.grib2 2026-04-27 14:43 839K
20260427T12Z_MSC_RDPS_RelativeHumidity_IsbL-0600_RLatLon0.09_PT010H.grib2 2026-04-27 14:43 861K
20260427T12Z_MSC_RDPS_RelativeHumidity_IsbL-0650_RLatLon0.09_PT010H.grib2 2026-04-27 14:43 876K
20260427T12Z_MSC_RDPS_RelativeHumidity_IsbL-0700_RLatLon0.09_PT010H.grib2 2026-04-27 14:43 904K
20260427T12Z_MSC_RDPS_RelativeHumidity_IsbL-0750_RLatLon0.09_PT010H.grib2 2026-04-27 14:43 951K
20260427T12Z_MSC_RDPS_RelativeHumidity_IsbL-0800_RLatLon0.09_PT010H.grib2 2026-04-27 14:43 1.0M
20260427T12Z_MSC_RDPS_RelativeHumidity_IsbL-0850_RLatLon0.09_PT010H.grib2 2026-04-27 14:43 1.1M
20260427T12Z_MSC_RDPS_RelativeHumidity_IsbL-0875_RLatLon0.09_PT010H.grib2 2026-04-27 14:43 1.1M
20260427T12Z_MSC_RDPS_RelativeHumidity_IsbL-0900_RLatLon0.09_PT010H.grib2 2026-04-27 14:43 1.1M
20260427T12Z_MSC_RDPS_RelativeHumidity_IsbL-0925_RLatLon0.09_PT010H.grib2 2026-04-27 14:43 1.1M
20260427T12Z_MSC_RDPS_RelativeHumidity_IsbL-0950_RLatLon0.09_PT010H.grib2 2026-04-27 14:43 1.1M
20260427T12Z_MSC_RDPS_RelativeHumidity_IsbL-0970_RLatLon0.09_PT010H.grib2 2026-04-27 14:43 1.0M
20260427T12Z_MSC_RDPS_RelativeHumidity_IsbL-0985_RLatLon0.09_PT010H.grib2 2026-04-27 14:43 1.0M
20260427T12Z_MSC_RDPS_RelativeHumidity_IsbL-1000_RLatLon0.09_PT010H.grib2 2026-04-27 14:43 1.0M
20260427T12Z_MSC_RDPS_RelativeHumidity_IsbL-1015_RLatLon0.09_PT010H.grib2 2026-04-27 14:43 1.0M
20260427T12Z_MSC_RDPS_Runoff-Accum_Sfc_RLatLon0.09_PT010H.grib2 2026-04-27 14:43 43K
20260427T12Z_MSC_RDPS_SWEATIndex_Sfc_RLatLon0.09_PT010H.grib2 2026-04-27 14:43 2.4M
20260427T12Z_MSC_RDPS_SeeingIndex_EAtm_RLatLon0.09_PT010H.grib2 2026-04-27 14:43 1.0M
20260427T12Z_MSC_RDPS_SensibleHeatNetFlux_Sfc_RLatLon0.09_PT010H.grib2 2026-04-27 14:43 351K
20260427T12Z_MSC_RDPS_ShowalterIndex_IsbL-0500_RLatLon0.09_PT010H.grib2 2026-04-27 14:43 2.5M
20260427T12Z_MSC_RDPS_SkyTransparencyIndex_EAtm_RLatLon0.09_PT010H.grib2 2026-04-27 14:43 725K
20260427T12Z_MSC_RDPS_Snow-Accum1h_Sfc_RLatLon0.09_PT010H.grib2 2026-04-27 14:43 339K
20260427T12Z_MSC_RDPS_Snow-Accum_Sfc_RLatLon0.09_PT010H.grib2 2026-04-27 14:43 651K
20260427T12Z_MSC_RDPS_SnowDensity_Sfc_RLatLon0.09_PT010H.grib2 2026-04-27 14:43 178K
20260427T12Z_MSC_RDPS_SnowDepth_Sfc_RLatLon0.09_PT010H.grib2 2026-04-27 14:43 709K
20260427T12Z_MSC_RDPS_SoilTemp_DBS-0to10cm_RLatLon0.09_PT010H.grib2 2026-04-27 14:43 217K
20260427T12Z_MSC_RDPS_SoilTemp_Sfc_RLatLon0.09_PT010H.grib2 2026-04-27 14:43 289K
20260427T12Z_MSC_RDPS_SoilVolumetricIceContent_Sfc_RLatLon0.09_PT010H.grib2 2026-04-27 14:43 168K
20260427T12Z_MSC_RDPS_SoilVolumetricWaterContent_DBS-0to10cm_RLatLon0.09_PT010H.grib2 2026-04-27 14:43 259K
20260427T12Z_MSC_RDPS_SoilVolumetricWaterContent_DBS-0to1cm_RLatLon0.09_PT010H.grib2 2026-04-27 14:43 333K
20260427T12Z_MSC_RDPS_SpecificHumidity_AGL-120m_RLatLon0.09_PT010H.grib2 2026-04-27 14:43 492K
20260427T12Z_MSC_RDPS_SpecificHumidity_AGL-2m_RLatLon0.09_PT010H.grib2 2026-04-27 14:43 662K
20260427T12Z_MSC_RDPS_SpecificHumidity_AGL-40m_RLatLon0.09_PT010H.grib2 2026-04-27 14:43 497K
20260427T12Z_MSC_RDPS_SpecificHumidity_AGL-80m_RLatLon0.09_PT010H.grib2 2026-04-27 14:43 493K
20260427T12Z_MSC_RDPS_SpecificHumidity_IsbL-0001_RLatLon0.09_PT010H.grib2 2026-04-27 14:43 341K
20260427T12Z_MSC_RDPS_SpecificHumidity_IsbL-0005_RLatLon0.09_PT010H.grib2 2026-04-27 14:43 356K
20260427T12Z_MSC_RDPS_SpecificHumidity_IsbL-0010_RLatLon0.09_PT010H.grib2 2026-04-27 14:43 394K
20260427T12Z_MSC_RDPS_SpecificHumidity_IsbL-0020_RLatLon0.09_PT010H.grib2 2026-04-27 14:43 387K
20260427T12Z_MSC_RDPS_SpecificHumidity_IsbL-0030_RLatLon0.09_PT010H.grib2 2026-04-27 14:43 478K
20260427T12Z_MSC_RDPS_SpecificHumidity_IsbL-0050_RLatLon0.09_PT010H.grib2 2026-04-27 14:43 466K
20260427T12Z_MSC_RDPS_SpecificHumidity_IsbL-0100_RLatLon0.09_PT010H.grib2 2026-04-27 14:43 441K
20260427T12Z_MSC_RDPS_SpecificHumidity_IsbL-0150_RLatLon0.09_PT010H.grib2 2026-04-27 14:43 380K
20260427T12Z_MSC_RDPS_SpecificHumidity_IsbL-0175_RLatLon0.09_PT010H.grib2 2026-04-27 14:43 472K
20260427T12Z_MSC_RDPS_SpecificHumidity_IsbL-0200_RLatLon0.09_PT010H.grib2 2026-04-27 14:43 468K
20260427T12Z_MSC_RDPS_SpecificHumidity_IsbL-0225_RLatLon0.09_PT010H.grib2 2026-04-27 14:43 464K
20260427T12Z_MSC_RDPS_SpecificHumidity_IsbL-0250_RLatLon0.09_PT010H.grib2 2026-04-27 14:43 561K
20260427T12Z_MSC_RDPS_SpecificHumidity_IsbL-0275_RLatLon0.09_PT010H.grib2 2026-04-27 14:43 480K
20260427T12Z_MSC_RDPS_SpecificHumidity_IsbL-0300_RLatLon0.09_PT010H.grib2 2026-04-27 14:43 577K
20260427T12Z_MSC_RDPS_SpecificHumidity_IsbL-0350_RLatLon0.09_PT010H.grib2 2026-04-27 14:43 540K
20260427T12Z_MSC_RDPS_SpecificHumidity_IsbL-0400_RLatLon0.09_PT010H.grib2 2026-04-27 14:43 522K
20260427T12Z_MSC_RDPS_SpecificHumidity_IsbL-0450_RLatLon0.09_PT010H.grib2 2026-04-27 14:43 577K
20260427T12Z_MSC_RDPS_SpecificHumidity_IsbL-0500_RLatLon0.09_PT010H.grib2 2026-04-27 14:43 513K
20260427T12Z_MSC_RDPS_SpecificHumidity_IsbL-0550_RLatLon0.09_PT010H.grib2 2026-04-27 14:43 567K
20260427T12Z_MSC_RDPS_SpecificHumidity_IsbL-0600_RLatLon0.09_PT010H.grib2 2026-04-27 14:43 636K
20260427T12Z_MSC_RDPS_SpecificHumidity_IsbL-0650_RLatLon0.09_PT010H.grib2 2026-04-27 14:43 555K
20260427T12Z_MSC_RDPS_SpecificHumidity_IsbL-0700_RLatLon0.09_PT010H.grib2 2026-04-27 14:43 604K
20260427T12Z_MSC_RDPS_SpecificHumidity_IsbL-0750_RLatLon0.09_PT010H.grib2 2026-04-27 14:43 675K
20260427T12Z_MSC_RDPS_SpecificHumidity_IsbL-0800_RLatLon0.09_PT010H.grib2 2026-04-27 14:43 746K
20260427T12Z_MSC_RDPS_SpecificHumidity_IsbL-0850_RLatLon0.09_PT010H.grib2 2026-04-27 14:43 677K
20260427T12Z_MSC_RDPS_SpecificHumidity_IsbL-0875_RLatLon0.09_PT010H.grib2 2026-04-27 14:43 698K
20260427T12Z_MSC_RDPS_SpecificHumidity_IsbL-0900_RLatLon0.09_PT010H.grib2 2026-04-27 14:43 708K
20260427T12Z_MSC_RDPS_SpecificHumidity_IsbL-0925_RLatLon0.09_PT010H.grib2 2026-04-27 14:43 711K
20260427T12Z_MSC_RDPS_SpecificHumidity_IsbL-0950_RLatLon0.09_PT010H.grib2 2026-04-27 14:43 708K
20260427T12Z_MSC_RDPS_SpecificHumidity_IsbL-0970_RLatLon0.09_PT010H.grib2 2026-04-27 14:43 698K
20260427T12Z_MSC_RDPS_SpecificHumidity_IsbL-0985_RLatLon0.09_PT010H.grib2 2026-04-27 14:43 690K
20260427T12Z_MSC_RDPS_SpecificHumidity_IsbL-1000_RLatLon0.09_PT010H.grib2 2026-04-27 14:43 684K
20260427T12Z_MSC_RDPS_SpecificHumidity_IsbL-1015_RLatLon0.09_PT010H.grib2 2026-04-27 14:43 676K
20260427T12Z_MSC_RDPS_SpecificHumidity_Sfc_RLatLon0.09_PT010H.grib2 2026-04-27 14:43 343K
20260427T12Z_MSC_RDPS_StormRelativeHelicity_EtaL-10000_RLatLon0.09_PT010H.grib2 2026-04-27 14:43 1.0M
20260427T12Z_MSC_RDPS_StormSeverityIndex_EtaL-10000_RLatLon0.09_PT010H.grib2 2026-04-27 14:43 1.2M
20260427T12Z_MSC_RDPS_Thickness_IsbL-0850to0700_RLatLon0.09_PT010H.grib2 2026-04-27 14:43 177K
20260427T12Z_MSC_RDPS_Thickness_IsbL-1000to0500_RLatLon0.09_PT010H.grib2 2026-04-27 14:43 202K
20260427T12Z_MSC_RDPS_Thickness_IsbL-1000to0850_RLatLon0.09_PT010H.grib2 2026-04-27 14:43 187K
20260427T12Z_MSC_RDPS_TotalCloudCover_Sfc_RLatLon0.09_PT010H.grib2 2026-04-27 14:43 651K
20260427T12Z_MSC_RDPS_TotalTotalsIndex_Sfc_RLatLon0.09_PT010H.grib2 2026-04-27 14:43 2.4M
20260427T12Z_MSC_RDPS_UVIndex-ClearSky_Sfc_RLatLon0.09_PT010H.grib2 2026-04-27 14:43 175K
20260427T12Z_MSC_RDPS_UVIndex_Sfc_RLatLon0.09_PT010H.grib2 2026-04-27 14:43 403K
20260427T12Z_MSC_RDPS_UpwardLongwaveRadiationFlux_NTAtm_RLatLon0.09_PT010H.grib2 2026-04-27 14:43 504K
20260427T12Z_MSC_RDPS_UpwardShortwaveRadiationFlux_NTAtm_RLatLon0.09_PT010H.grib2 2026-04-27 14:43 449K
20260427T12Z_MSC_RDPS_VerticalVelocity_IsbL-0250_RLatLon0.09_PT010H.grib2 2026-04-27 14:43 551K
20260427T12Z_MSC_RDPS_VerticalVelocity_IsbL-0500_RLatLon0.09_PT010H.grib2 2026-04-27 14:43 542K
20260427T12Z_MSC_RDPS_VerticalVelocity_IsbL-0700_RLatLon0.09_PT010H.grib2 2026-04-27 14:43 598K
20260427T12Z_MSC_RDPS_VerticalVelocity_IsbL-0850_RLatLon0.09_PT010H.grib2 2026-04-27 14:43 657K
20260427T12Z_MSC_RDPS_VerticalWindShear_EtaL-6500_RLatLon0.09_PT010H.grib2 2026-04-27 14:43 1.2M
20260427T12Z_MSC_RDPS_WindChill_Sfc_RLatLon0.09_PT010H.grib2 2026-04-27 14:43 1.1M
20260427T12Z_MSC_RDPS_WindDir_AGL-10m_RLatLon0.09_PT010H.grib2 2026-04-27 14:43 957K
20260427T12Z_MSC_RDPS_WindDir_AGL-120m_RLatLon0.09_PT010H.grib2 2026-04-27 14:43 604K
20260427T12Z_MSC_RDPS_WindDir_AGL-40m_RLatLon0.09_PT010H.grib2 2026-04-27 14:43 626K
20260427T12Z_MSC_RDPS_WindDir_AGL-80m_RLatLon0.09_PT010H.grib2 2026-04-27 14:43 613K
20260427T12Z_MSC_RDPS_WindDir_IsbL-0001_RLatLon0.09_PT010H.grib2 2026-04-27 14:43 276K
20260427T12Z_MSC_RDPS_WindDir_IsbL-0005_RLatLon0.09_PT010H.grib2 2026-04-27 14:43 355K
20260427T12Z_MSC_RDPS_WindDir_IsbL-0010_RLatLon0.09_PT010H.grib2 2026-04-27 14:43 385K
20260427T12Z_MSC_RDPS_WindDir_IsbL-0020_RLatLon0.09_PT010H.grib2 2026-04-27 14:43 403K
20260427T12Z_MSC_RDPS_WindDir_IsbL-0030_RLatLon0.09_PT010H.grib2 2026-04-27 14:43 404K
20260427T12Z_MSC_RDPS_WindDir_IsbL-0050_RLatLon0.09_PT010H.grib2 2026-04-27 14:43 416K
20260427T12Z_MSC_RDPS_WindDir_IsbL-0100_RLatLon0.09_PT010H.grib2 2026-04-27 14:43 407K
20260427T12Z_MSC_RDPS_WindDir_IsbL-0150_RLatLon0.09_PT010H.grib2 2026-04-27 14:43 415K
20260427T12Z_MSC_RDPS_WindDir_IsbL-0175_RLatLon0.09_PT010H.grib2 2026-04-27 14:43 435K
20260427T12Z_MSC_RDPS_WindDir_IsbL-0200_RLatLon0.09_PT010H.grib2 2026-04-27 14:43 447K
20260427T12Z_MSC_RDPS_WindDir_IsbL-0225_RLatLon0.09_PT010H.grib2 2026-04-27 14:43 447K
20260427T12Z_MSC_RDPS_WindDir_IsbL-0250_RLatLon0.09_PT010H.grib2 2026-04-27 14:43 449K
20260427T12Z_MSC_RDPS_WindDir_IsbL-0275_RLatLon0.09_PT010H.grib2 2026-04-27 14:43 469K
20260427T12Z_MSC_RDPS_WindDir_IsbL-0300_RLatLon0.09_PT010H.grib2 2026-04-27 14:43 468K
20260427T12Z_MSC_RDPS_WindDir_IsbL-0350_RLatLon0.09_PT010H.grib2 2026-04-27 14:43 489K
20260427T12Z_MSC_RDPS_WindDir_IsbL-0400_RLatLon0.09_PT010H.grib2 2026-04-27 14:43 502K
20260427T12Z_MSC_RDPS_WindDir_IsbL-0450_RLatLon0.09_PT010H.grib2 2026-04-27 14:43 523K
20260427T12Z_MSC_RDPS_WindDir_IsbL-0500_RLatLon0.09_PT010H.grib2 2026-04-27 14:43 538K
20260427T12Z_MSC_RDPS_WindDir_IsbL-0550_RLatLon0.09_PT010H.grib2 2026-04-27 14:43 554K
20260427T12Z_MSC_RDPS_WindDir_IsbL-0600_RLatLon0.09_PT010H.grib2 2026-04-27 14:43 586K
20260427T12Z_MSC_RDPS_WindDir_IsbL-0650_RLatLon0.09_PT010H.grib2 2026-04-27 14:43 624K
20260427T12Z_MSC_RDPS_WindDir_IsbL-0700_RLatLon0.09_PT010H.grib2 2026-04-27 14:43 668K
20260427T12Z_MSC_RDPS_WindDir_IsbL-0750_RLatLon0.09_PT010H.grib2 2026-04-27 14:43 720K
20260427T12Z_MSC_RDPS_WindDir_IsbL-0800_RLatLon0.09_PT010H.grib2 2026-04-27 14:43 793K
20260427T12Z_MSC_RDPS_WindDir_IsbL-0850_RLatLon0.09_PT010H.grib2 2026-04-27 14:43 860K
20260427T12Z_MSC_RDPS_WindDir_IsbL-0875_RLatLon0.09_PT010H.grib2 2026-04-27 14:43 883K
20260427T12Z_MSC_RDPS_WindDir_IsbL-0900_RLatLon0.09_PT010H.grib2 2026-04-27 14:43 900K
20260427T12Z_MSC_RDPS_WindDir_IsbL-0925_RLatLon0.09_PT010H.grib2 2026-04-27 14:43 905K
20260427T12Z_MSC_RDPS_WindDir_IsbL-0950_RLatLon0.09_PT010H.grib2 2026-04-27 14:43 905K
20260427T12Z_MSC_RDPS_WindDir_IsbL-0970_RLatLon0.09_PT010H.grib2 2026-04-27 14:43 909K
20260427T12Z_MSC_RDPS_WindDir_IsbL-0985_RLatLon0.09_PT010H.grib2 2026-04-27 14:43 918K
20260427T12Z_MSC_RDPS_WindDir_IsbL-1000_RLatLon0.09_PT010H.grib2 2026-04-27 14:43 932K
20260427T12Z_MSC_RDPS_WindDir_IsbL-1015_RLatLon0.09_PT010H.grib2 2026-04-27 14:43 948K
20260427T12Z_MSC_RDPS_WindGust-Max_AGL-10m_RLatLon0.09_PT010H.grib2 2026-04-27 14:43 947K
20260427T12Z_MSC_RDPS_WindGust-Min_AGL-10m_RLatLon0.09_PT010H.grib2 2026-04-27 14:43 926K
20260427T12Z_MSC_RDPS_WindGust_AGL-10m_RLatLon0.09_PT010H.grib2 2026-04-27 14:43 934K
20260427T12Z_MSC_RDPS_WindSpeed_AGL-10m_RLatLon0.09_PT010H.grib2 2026-04-27 14:43 840K
20260427T12Z_MSC_RDPS_WindSpeed_AGL-120m_RLatLon0.09_PT010H.grib2 2026-04-27 14:43 543K
20260427T12Z_MSC_RDPS_WindSpeed_AGL-40m_RLatLon0.09_PT010H.grib2 2026-04-27 14:43 551K
20260427T12Z_MSC_RDPS_WindSpeed_AGL-80m_RLatLon0.09_PT010H.grib2 2026-04-27 14:43 546K
20260427T12Z_MSC_RDPS_WindSpeed_IsbL-0001_RLatLon0.09_PT010H.grib2 2026-04-27 14:43 250K
20260427T12Z_MSC_RDPS_WindSpeed_IsbL-0005_RLatLon0.09_PT010H.grib2 2026-04-27 14:43 294K
20260427T12Z_MSC_RDPS_WindSpeed_IsbL-0010_RLatLon0.09_PT010H.grib2 2026-04-27 14:43 306K
20260427T12Z_MSC_RDPS_WindSpeed_IsbL-0020_RLatLon0.09_PT010H.grib2 2026-04-27 14:43 320K
20260427T12Z_MSC_RDPS_WindSpeed_IsbL-0030_RLatLon0.09_PT010H.grib2 2026-04-27 14:43 315K
20260427T12Z_MSC_RDPS_WindSpeed_IsbL-0050_RLatLon0.09_PT010H.grib2 2026-04-27 14:43 349K
20260427T12Z_MSC_RDPS_WindSpeed_IsbL-0100_RLatLon0.09_PT010H.grib2 2026-04-27 14:43 475K
20260427T12Z_MSC_RDPS_WindSpeed_IsbL-0150_RLatLon0.09_PT010H.grib2 2026-04-27 14:43 382K
20260427T12Z_MSC_RDPS_WindSpeed_IsbL-0175_RLatLon0.09_PT010H.grib2 2026-04-27 14:43 412K
20260427T12Z_MSC_RDPS_WindSpeed_IsbL-0200_RLatLon0.09_PT010H.grib2 2026-04-27 14:43 449K
20260427T12Z_MSC_RDPS_WindSpeed_IsbL-0225_RLatLon0.09_PT010H.grib2 2026-04-27 14:43 454K
20260427T12Z_MSC_RDPS_WindSpeed_IsbL-0250_RLatLon0.09_PT010H.grib2 2026-04-27 14:43 455K
20260427T12Z_MSC_RDPS_WindSpeed_IsbL-0275_RLatLon0.09_PT010H.grib2 2026-04-27 14:43 472K
20260427T12Z_MSC_RDPS_WindSpeed_IsbL-0300_RLatLon0.09_PT010H.grib2 2026-04-27 14:43 469K
20260427T12Z_MSC_RDPS_WindSpeed_IsbL-0350_RLatLon0.09_PT010H.grib2 2026-04-27 14:43 478K
20260427T12Z_MSC_RDPS_WindSpeed_IsbL-0400_RLatLon0.09_PT010H.grib2 2026-04-27 14:43 462K
20260427T12Z_MSC_RDPS_WindSpeed_IsbL-0450_RLatLon0.09_PT010H.grib2 2026-04-27 14:43 461K
20260427T12Z_MSC_RDPS_WindSpeed_IsbL-0500_RLatLon0.09_PT010H.grib2 2026-04-27 14:43 459K
20260427T12Z_MSC_RDPS_WindSpeed_IsbL-0550_RLatLon0.09_PT010H.grib2 2026-04-27 14:43 462K
20260427T12Z_MSC_RDPS_WindSpeed_IsbL-0600_RLatLon0.09_PT010H.grib2 2026-04-27 14:43 592K
20260427T12Z_MSC_RDPS_WindSpeed_IsbL-0650_RLatLon0.09_PT010H.grib2 2026-04-27 14:43 613K
20260427T12Z_MSC_RDPS_WindSpeed_IsbL-0700_RLatLon0.09_PT010H.grib2 2026-04-27 14:43 638K
20260427T12Z_MSC_RDPS_WindSpeed_IsbL-0750_RLatLon0.09_PT010H.grib2 2026-04-27 14:43 666K
20260427T12Z_MSC_RDPS_WindSpeed_IsbL-0800_RLatLon0.09_PT010H.grib2 2026-04-27 14:43 758K
20260427T12Z_MSC_RDPS_WindSpeed_IsbL-0850_RLatLon0.09_PT010H.grib2 2026-04-27 14:43 812K
20260427T12Z_MSC_RDPS_WindSpeed_IsbL-0875_RLatLon0.09_PT010H.grib2 2026-04-27 14:43 785K
20260427T12Z_MSC_RDPS_WindSpeed_IsbL-0900_RLatLon0.09_PT010H.grib2 2026-04-27 14:43 799K
20260427T12Z_MSC_RDPS_WindSpeed_IsbL-0925_RLatLon0.09_PT010H.grib2 2026-04-27 14:43 807K
20260427T12Z_MSC_RDPS_WindSpeed_IsbL-0950_RLatLon0.09_PT010H.grib2 2026-04-27 14:43 855K
20260427T12Z_MSC_RDPS_WindSpeed_IsbL-0970_RLatLon0.09_PT010H.grib2 2026-04-27 14:43 856K
20260427T12Z_MSC_RDPS_WindSpeed_IsbL-0985_RLatLon0.09_PT010H.grib2 2026-04-27 14:43 856K
20260427T12Z_MSC_RDPS_WindSpeed_IsbL-1000_RLatLon0.09_PT010H.grib2 2026-04-27 14:43 848K
20260427T12Z_MSC_RDPS_WindSpeed_IsbL-1015_RLatLon0.09_PT010H.grib2 2026-04-27 14:43 841K
20260427T12Z_MSC_RDPS_WindU_AGL-10m_RLatLon0.09_PT010H.grib2 2026-04-27 14:43 435K
20260427T12Z_MSC_RDPS_WindU_AGL-120m_RLatLon0.09_PT010H.grib2 2026-04-27 14:43 415K
20260427T12Z_MSC_RDPS_WindU_AGL-40m_RLatLon0.09_PT010H.grib2 2026-04-27 14:43 537K
20260427T12Z_MSC_RDPS_WindU_AGL-80m_RLatLon0.09_PT010H.grib2 2026-04-27 14:43 417K
20260427T12Z_MSC_RDPS_WindU_IsbL-0001_RLatLon0.09_PT010H.grib2 2026-04-27 14:43 292K
20260427T12Z_MSC_RDPS_WindU_IsbL-0005_RLatLon0.09_PT010H.grib2 2026-04-27 14:43 288K
20260427T12Z_MSC_RDPS_WindU_IsbL-0010_RLatLon0.09_PT010H.grib2 2026-04-27 14:43 338K
20260427T12Z_MSC_RDPS_WindU_IsbL-0020_RLatLon0.09_PT010H.grib2 2026-04-27 14:43 350K
20260427T12Z_MSC_RDPS_WindU_IsbL-0030_RLatLon0.09_PT010H.grib2 2026-04-27 14:43 347K
20260427T12Z_MSC_RDPS_WindU_IsbL-0050_RLatLon0.09_PT010H.grib2 2026-04-27 14:43 376K
20260427T12Z_MSC_RDPS_WindU_IsbL-0100_RLatLon0.09_PT010H.grib2 2026-04-27 14:43 432K
20260427T12Z_MSC_RDPS_WindU_IsbL-0150_RLatLon0.09_PT010H.grib2 2026-04-27 14:43 399K
20260427T12Z_MSC_RDPS_WindU_IsbL-0175_RLatLon0.09_PT010H.grib2 2026-04-27 14:43 425K
20260427T12Z_MSC_RDPS_WindU_IsbL-0200_RLatLon0.09_PT010H.grib2 2026-04-27 14:43 342K
20260427T12Z_MSC_RDPS_WindU_IsbL-0225_RLatLon0.09_PT010H.grib2 2026-04-27 14:43 346K
20260427T12Z_MSC_RDPS_WindU_IsbL-0250_RLatLon0.09_PT010H.grib2 2026-04-27 14:43 346K
20260427T12Z_MSC_RDPS_WindU_IsbL-0275_RLatLon0.09_PT010H.grib2 2026-04-27 14:43 461K
20260427T12Z_MSC_RDPS_WindU_IsbL-0300_RLatLon0.09_PT010H.grib2 2026-04-27 14:43 355K
20260427T12Z_MSC_RDPS_WindU_IsbL-0350_RLatLon0.09_PT010H.grib2 2026-04-27 14:43 363K
20260427T12Z_MSC_RDPS_WindU_IsbL-0400_RLatLon0.09_PT010H.grib2 2026-04-27 14:43 467K
20260427T12Z_MSC_RDPS_WindU_IsbL-0450_RLatLon0.09_PT010H.grib2 2026-04-27 14:43 467K
20260427T12Z_MSC_RDPS_WindU_IsbL-0500_RLatLon0.09_PT010H.grib2 2026-04-27 14:43 467K
20260427T12Z_MSC_RDPS_WindU_IsbL-0550_RLatLon0.09_PT010H.grib2 2026-04-27 14:43 470K
20260427T12Z_MSC_RDPS_WindU_IsbL-0600_RLatLon0.09_PT010H.grib2 2026-04-27 14:43 482K
20260427T12Z_MSC_RDPS_WindU_IsbL-0650_RLatLon0.09_PT010H.grib2 2026-04-27 14:43 499K
20260427T12Z_MSC_RDPS_WindU_IsbL-0700_RLatLon0.09_PT010H.grib2 2026-04-27 14:43 520K
20260427T12Z_MSC_RDPS_WindU_IsbL-0750_RLatLon0.09_PT010H.grib2 2026-04-27 14:43 532K
20260427T12Z_MSC_RDPS_WindU_IsbL-0800_RLatLon0.09_PT010H.grib2 2026-04-27 14:43 586K
20260427T12Z_MSC_RDPS_WindU_IsbL-0850_RLatLon0.09_PT010H.grib2 2026-04-27 14:43 630K
20260427T12Z_MSC_RDPS_WindU_IsbL-0875_RLatLon0.09_PT010H.grib2 2026-04-27 14:43 638K
20260427T12Z_MSC_RDPS_WindU_IsbL-0900_RLatLon0.09_PT010H.grib2 2026-04-27 14:43 648K
20260427T12Z_MSC_RDPS_WindU_IsbL-0925_RLatLon0.09_PT010H.grib2 2026-04-27 14:43 655K
20260427T12Z_MSC_RDPS_WindU_IsbL-0950_RLatLon0.09_PT010H.grib2 2026-04-27 14:43 651K
20260427T12Z_MSC_RDPS_WindU_IsbL-0970_RLatLon0.09_PT010H.grib2 2026-04-27 14:43 650K
20260427T12Z_MSC_RDPS_WindU_IsbL-0985_RLatLon0.09_PT010H.grib2 2026-04-27 14:43 650K
20260427T12Z_MSC_RDPS_WindU_IsbL-1000_RLatLon0.09_PT010H.grib2 2026-04-27 14:43 785K
20260427T12Z_MSC_RDPS_WindU_IsbL-1015_RLatLon0.09_PT010H.grib2 2026-04-27 14:43 782K
20260427T12Z_MSC_RDPS_WindV_AGL-10m_RLatLon0.09_PT010H.grib2 2026-04-27 14:43 382K
20260427T12Z_MSC_RDPS_WindV_AGL-120m_RLatLon0.09_PT010H.grib2 2026-04-27 14:43 414K
20260427T12Z_MSC_RDPS_WindV_AGL-40m_RLatLon0.09_PT010H.grib2 2026-04-27 14:43 418K
20260427T12Z_MSC_RDPS_WindV_AGL-80m_RLatLon0.09_PT010H.grib2 2026-04-27 14:43 415K
20260427T12Z_MSC_RDPS_WindV_IsbL-0001_RLatLon0.09_PT010H.grib2 2026-04-27 14:43 265K
20260427T12Z_MSC_RDPS_WindV_IsbL-0005_RLatLon0.09_PT010H.grib2 2026-04-27 14:43 286K
20260427T12Z_MSC_RDPS_WindV_IsbL-0010_RLatLon0.09_PT010H.grib2 2026-04-27 14:43 296K
20260427T12Z_MSC_RDPS_WindV_IsbL-0020_RLatLon0.09_PT010H.grib2 2026-04-27 14:43 311K
20260427T12Z_MSC_RDPS_WindV_IsbL-0030_RLatLon0.09_PT010H.grib2 2026-04-27 14:43 311K
20260427T12Z_MSC_RDPS_WindV_IsbL-0050_RLatLon0.09_PT010H.grib2 2026-04-27 14:43 342K
20260427T12Z_MSC_RDPS_WindV_IsbL-0100_RLatLon0.09_PT010H.grib2 2026-04-27 14:43 332K
20260427T12Z_MSC_RDPS_WindV_IsbL-0150_RLatLon0.09_PT010H.grib2 2026-04-27 14:43 397K
20260427T12Z_MSC_RDPS_WindV_IsbL-0175_RLatLon0.09_PT010H.grib2 2026-04-27 14:43 425K
20260427T12Z_MSC_RDPS_WindV_IsbL-0200_RLatLon0.09_PT010H.grib2 2026-04-27 14:43 343K
20260427T12Z_MSC_RDPS_WindV_IsbL-0225_RLatLon0.09_PT010H.grib2 2026-04-27 14:43 370K
20260427T12Z_MSC_RDPS_WindV_IsbL-0250_RLatLon0.09_PT010H.grib2 2026-04-27 14:43 370K
20260427T12Z_MSC_RDPS_WindV_IsbL-0275_RLatLon0.09_PT010H.grib2 2026-04-27 14:43 382K
20260427T12Z_MSC_RDPS_WindV_IsbL-0300_RLatLon0.09_PT010H.grib2 2026-04-27 14:43 378K
20260427T12Z_MSC_RDPS_WindV_IsbL-0350_RLatLon0.09_PT010H.grib2 2026-04-27 14:43 383K
20260427T12Z_MSC_RDPS_WindV_IsbL-0400_RLatLon0.09_PT010H.grib2 2026-04-27 14:43 361K
20260427T12Z_MSC_RDPS_WindV_IsbL-0450_RLatLon0.09_PT010H.grib2 2026-04-27 14:43 360K
20260427T12Z_MSC_RDPS_WindV_IsbL-0500_RLatLon0.09_PT010H.grib2 2026-04-27 14:43 462K
20260427T12Z_MSC_RDPS_WindV_IsbL-0550_RLatLon0.09_PT010H.grib2 2026-04-27 14:43 464K
20260427T12Z_MSC_RDPS_WindV_IsbL-0600_RLatLon0.09_PT010H.grib2 2026-04-27 14:43 476K
20260427T12Z_MSC_RDPS_WindV_IsbL-0650_RLatLon0.09_PT010H.grib2 2026-04-27 14:43 494K
20260427T12Z_MSC_RDPS_WindV_IsbL-0700_RLatLon0.09_PT010H.grib2 2026-04-27 14:43 515K
20260427T12Z_MSC_RDPS_WindV_IsbL-0750_RLatLon0.09_PT010H.grib2 2026-04-27 14:43 540K
20260427T12Z_MSC_RDPS_WindV_IsbL-0800_RLatLon0.09_PT010H.grib2 2026-04-27 14:43 579K
20260427T12Z_MSC_RDPS_WindV_IsbL-0850_RLatLon0.09_PT010H.grib2 2026-04-27 14:43 625K
20260427T12Z_MSC_RDPS_WindV_IsbL-0875_RLatLon0.09_PT010H.grib2 2026-04-27 14:43 642K
20260427T12Z_MSC_RDPS_WindV_IsbL-0900_RLatLon0.09_PT010H.grib2 2026-04-27 14:43 652K
20260427T12Z_MSC_RDPS_WindV_IsbL-0925_RLatLon0.09_PT010H.grib2 2026-04-27 14:43 657K
20260427T12Z_MSC_RDPS_WindV_IsbL-0950_RLatLon0.09_PT010H.grib2 2026-04-27 14:43 656K
20260427T12Z_MSC_RDPS_WindV_IsbL-0970_RLatLon0.09_PT010H.grib2 2026-04-27 14:43 649K
20260427T12Z_MSC_RDPS_WindV_IsbL-0985_RLatLon0.09_PT010H.grib2 2026-04-27 14:43 648K
20260427T12Z_MSC_RDPS_WindV_IsbL-1000_RLatLon0.09_PT010H.grib2 2026-04-27 14:43 645K
20260427T12Z_MSC_RDPS_WindV_IsbL-1015_RLatLon0.09_PT010H.grib2 2026-04-27 14:43 641K